Miscellaneous Local Product
Issued by NWS Hastings, NE

Home | Current Version | Previous Version | Text Only | Print | Product List | Glossary Off
Versions: 1 2 3 4 5 6 7 8 9 10 11 12 13 14 15 16 17 18 19 20 21 22 23 24 25 26 27 28 29 30 31 32 33 34 35 36 37 38 39 40 41 42 43 44 45 46 47 48 49 50

456
AXUS43 KGID 040702
MISGRI

GID CWA HOURLY WEATHER ROUNDUP
NATIONAL WEATHER SERVICE HASTINGS NE
100 AM CST SUN DEC 04 2016

NOTE: "FAIR" INDICATES FEW OR NO CLOUDS BELOW 12,000 FEET WITH NO
SIGNIFICANT WEATHER AND/OR OBSTRUCTIONS TO VISIBILITY.

...SOUTH CENTRAL NEBRASKA...

CITY           SKY/WX    TMP DP  RH WIND       PRES   REMARKS
GRAND ISLAND   CLOUDY    32  32 100 SW10      30.01F WCI  24
HASTINGS       CLOUDY    32  31  96 SW6       30.02F WCI  26
KEARNEY        CLOUDY    32  28  86 W9        30.01F WCI  24
ORD            MOCLDY    31  28  89 S3        29.97F
YORK           CLOUDY    32  32 100 CALM      30.02F FOG
AURORA         CLOUDY    32  32 100 W9        30.01S WCI  24
LEXINGTON      CLOUDY    31  30  94 CALM      30.00S FOG
HOLDREGE       FOG       32  31  98 SW6       30.00F VSB 3/4 WCI  26
HEBRON         CLOUDY    32  32  99 W5        30.04F FOG     WCI  28

...NEBRASKA PANHANDLE...

CITY           SKY/WX    TMP DP  RH WIND       PRES   REMARKS
CHADRON        CLOUDY    28  18  66 SW9       29.99R WCI  19
ALLIANCE       CLOUDY    27  17  66 W13       29.98R WCI  16
SCOTTSBLUFF    PTCLDY    20  12  71 NW7       30.02R WCI  11
SIDNEY         CLEAR     23  14  68 W12       30.01S WCI  12

...WESTERN AND NORTH CENTRAL NEBRASKA...

CITY           SKY/WX    TMP DP  RH WIND       PRES   REMARKS
VALENTINE      CLEAR     24  18  77 SW8       29.93S WCI  15
AINSWORTH      MOCLDY    27  21  79 SW8       29.94S WCI  18
ONEILL         PTCLDY    32  31  96 SW6       29.95F WCI  26
BROKEN BOW     PTCLDY    31  29  92 CALM      29.97F
IMPERIAL       CLEAR     28  15  58 W10       30.01F WCI  19
NORTH PLATTE   CLOUDY    25  22  88 CALM      29.99F
MCCOOK         CLOUDY    28  25  88 W13       30.01F WCI  17

...EASTERN NEBRASKA...

CITY           SKY/WX    TMP DP  RH WIND       PRES   REMARKS
NORFOLK        CLOUDY    33  30  88 S9        29.99S WCI  25
SO SIOUX CITY  CLOUDY    35  33  92 S7        30.02F WCI  29
TEKAMAH        CLOUDY    32  31  96 S6        30.03F FOG     WCI  26
COLUMBUS       CLOUDY    34  30  86 SW9       30.01F WCI  26
ALBION         CLOUDY    33  32  97 SW8       29.99S WCI  26
OMAHA EPPLEY   LGT RAIN  33  30  88 S5        30.04F VSB 1   WCI  29
MILLARD        LGT RAIN  34  32  95 CALM      30.04S
LINCOLN        CLOUDY    33  32  96 S3        30.04F FOG
NEBRASKA CITY  RAIN      37  37 100 SW8       30.04F WCI  31
BEATRICE       LGT RAIN  34  33  99 SW5       30.04F WCI  30
FALLS CITY     RAIN      39  39 100 S5        30.06F FOG

...NORTHERN KANSAS...

CITY           SKY/WX    TMP DP  RH WIND       PRES   REMARKS
GOODLAND       CLEAR     23  14  68 W14       30.03F WCI  11
HILL CITY      CLOUDY    34  33  96 W9        30.03F FOG     WCI  27
NORTON         CLOUDY    34  30  86 SW12      30.00F WCI  25
PHILLIPSBURG   FOG       32  32 100 W5        30.04F VSB 1   WCI  27
SMITH CENTER   FOG       28  28 100 W3        30.03F VSB 1/4
BELOIT         CLOUDY    32  30  93 CALM      30.04F
HAYS           PTCLDY    31  30  96 W5        30.04F FOG     WCI  26
RUSSELL        MOCLDY    34  33  96 W3        30.03S
CONCORDIA      CLOUDY    35  35 100 W6        30.04F WCI  30
SALINA         LGT RAIN  41  40  96 S5        30.05F
TOPEKA         LGT RAIN  40  38  93 CALM      30.07F FOG



USA.gov is the U.S. government's official web portal to all federal, state and local government web resources and services.